Location: Byszew
(52.1813°N, 19.2693°E)
Time: 14:50:19
(UTC+00:00)

SL-8 Rocket - Pass Details

Date: 03 March 2021
Orbit: 957 x 991 km, 82.9° (Epoch: 13 April)

Event Time Altitude Azimuth Distance (km) Brightness Sun altitude
Rises 18:07:25 0° 175° (S) 3,668 6.9 -16.2°
Reaches altitude 10° 18:09:57 10° 173° (S) 2,720 6.2 -16.6°
Maximum altitude 18:16:04 62° 94° (E) 1,087 3.9 -17.5°
Drops below altitude 10° 18:22:11 10° 15° (NNE) 2,715 6.3 -18.5°
Sets 18:24:42 0° 13° (NNE) 3,662 7.0 -18.8°
